Year,Month,Day,Hour,Minute,Value (Times are PST for temperature in C)
2011,02,27,00,00,1.70
2011,02,27,00,01,1.80
2011,02,27,00,02,1.80
2011,02,27,00,03,1.80
2011,02,27,00,04,1.80
2011,02,27,00,05,1.80
2011,02,27,00,06,1.80
2011,02,27,00,07,1.80
2011,02,27,00,08,1.80
2011,02,27,00,09,1.80
2011,02,27,00,10,1.80
2011,02,27,00,11,1.80
2011,02,27,00,12,1.80
2011,02,27,00,13,1.80
2011,02,27,00,14,1.80
2011,02,27,00,15,1.80
2011,02,27,00,16,1.80
2011,02,27,00,17,1.80
2011,02,27,00,18,1.80
2011,02,27,00,19,1.80
2011,02,27,00,20,1.80
2011,02,27,00,21,1.90
2011,02,27,00,22,1.90
2011,02,27,00,23,1.90
2011,02,27,00,24,1.90
2011,02,27,00,25,1.90
2011,02,27,00,26,1.90
2011,02,27,00,27,1.80
2011,02,27,00,28,1.90
2011,02,27,00,29,1.90
2011,02,27,00,30,1.90
2011,02,27,00,31,1.90
2011,02,27,00,32,1.90
2011,02,27,00,33,1.90
2011,02,27,00,34,1.90
2011,02,27,00,35,1.90
2011,02,27,00,36,1.90
2011,02,27,00,37,1.90
2011,02,27,00,38,1.90
2011,02,27,00,39,1.90
2011,02,27,00,40,1.90
2011,02,27,00,41,1.90
2011,02,27,00,42,1.90
2011,02,27,00,43,1.90
2011,02,27,00,44,1.90
2011,02,27,00,45,1.90
2011,02,27,00,46,1.90
2011,02,27,00,47,1.90
2011,02,27,00,48,1.90
2011,02,27,00,49,1.90
2011,02,27,00,50,1.90
2011,02,27,00,51,1.90
2011,02,27,00,52,1.90
2011,02,27,00,53,1.90
2011,02,27,00,54,1.90
2011,02,27,00,55,1.90
2011,02,27,00,56,1.90
2011,02,27,00,57,1.90
2011,02,27,00,58,1.90
2011,02,27,00,59,1.90
2011,02,27,01,00,1.90
2011,02,27,01,01,1.90
2011,02,27,01,02,1.90
2011,02,27,01,03,1.90
2011,02,27,01,04,1.90
2011,02,27,01,05,1.90
2011,02,27,01,06,1.90
2011,02,27,01,07,1.90
2011,02,27,01,08,2.00
2011,02,27,01,09,2.00
2011,02,27,01,10,2.00
2011,02,27,01,11,2.00
2011,02,27,01,12,2.00
2011,02,27,01,13,2.00
2011,02,27,01,14,2.00
2011,02,27,01,15,2.00
2011,02,27,01,16,2.10
2011,02,27,01,17,2.10
2011,02,27,01,18,2.10
2011,02,27,01,19,2.10
2011,02,27,01,20,2.10
2011,02,27,01,21,2.20
2011,02,27,01,22,2.10
2011,02,27,01,23,2.20
2011,02,27,01,24,2.20
2011,02,27,01,25,2.20
2011,02,27,01,26,2.20
2011,02,27,01,27,2.20
2011,02,27,01,28,2.20
2011,02,27,01,29,2.20
2011,02,27,01,30,2.20
2011,02,27,01,31,2.20
2011,02,27,01,32,2.20
2011,02,27,01,33,2.20
2011,02,27,01,34,2.20
2011,02,27,01,35,2.20
2011,02,27,01,36,2.20
2011,02,27,01,37,2.20
2011,02,27,01,38,2.20
2011,02,27,01,39,2.20
2011,02,27,01,40,2.20
2011,02,27,01,41,2.20
2011,02,27,01,42,2.20
2011,02,27,01,43,2.20
2011,02,27,01,44,2.20
2011,02,27,01,45,2.20
2011,02,27,01,46,2.20
2011,02,27,01,47,2.20
2011,02,27,01,48,2.20
2011,02,27,01,49,2.10
2011,02,27,01,50,2.10
2011,02,27,01,51,2.10
2011,02,27,01,52,2.10
2011,02,27,01,53,2.10
2011,02,27,01,54,2.10
2011,02,27,01,55,2.10
2011,02,27,01,56,2.10
2011,02,27,01,57,2.10
2011,02,27,01,58,2.10
2011,02,27,01,59,2.10
2011,02,27,02,00,2.00
2011,02,27,02,01,2.00
2011,02,27,02,02,2.00
2011,02,27,02,03,2.00
2011,02,27,02,04,2.00
2011,02,27,02,05,2.00
2011,02,27,02,06,2.00
2011,02,27,02,07,2.00
2011,02,27,02,08,2.00
2011,02,27,02,09,2.00
2011,02,27,02,10,2.00
2011,02,27,02,11,2.00
2011,02,27,02,12,2.00
2011,02,27,02,13,2.00
2011,02,27,02,14,2.00
2011,02,27,02,15,2.00
2011,02,27,02,16,2.00
2011,02,27,02,17,2.00
2011,02,27,02,18,2.00
2011,02,27,02,19,2.00
2011,02,27,02,20,2.00
2011,02,27,02,21,2.00
2011,02,27,02,22,2.00
2011,02,27,02,23,2.00
2011,02,27,02,24,2.10
2011,02,27,02,25,2.00
2011,02,27,02,26,2.00
2011,02,27,02,27,2.00
2011,02,27,02,28,2.10
2011,02,27,02,29,2.00
2011,02,27,02,30,2.10
2011,02,27,02,31,2.10
2011,02,27,02,32,2.00
2011,02,27,02,33,2.00
2011,02,27,02,34,2.10
2011,02,27,02,35,2.10
2011,02,27,02,36,2.10
2011,02,27,02,37,2.10
2011,02,27,02,38,2.10
2011,02,27,02,39,2.10
2011,02,27,02,40,2.10
2011,02,27,02,41,2.10
2011,02,27,02,42,2.00
2011,02,27,02,43,2.10
2011,02,27,02,44,2.00
2011,02,27,02,45,2.00
2011,02,27,02,46,2.00
2011,02,27,02,47,2.00
2011,02,27,02,48,2.00
2011,02,27,02,49,2.00
2011,02,27,02,50,2.00
2011,02,27,02,51,2.00
2011,02,27,02,52,2.00
2011,02,27,02,53,2.00
2011,02,27,02,54,2.00
2011,02,27,02,55,1.90
2011,02,27,02,56,1.90
2011,02,27,02,57,1.90
2011,02,27,02,58,1.90
2011,02,27,02,59,1.90
2011,02,27,03,00,1.90
2011,02,27,03,01,1.90
2011,02,27,03,02,1.90
2011,02,27,03,03,1.90
2011,02,27,03,04,1.90
2011,02,27,03,05,1.90
2011,02,27,03,06,1.90
2011,02,27,03,07,1.90
2011,02,27,03,08,1.90
2011,02,27,03,09,1.90
2011,02,27,03,10,1.90
2011,02,27,03,11,1.90
2011,02,27,03,12,2.00
2011,02,27,03,13,2.00
2011,02,27,03,14,2.00
2011,02,27,03,15,2.00
2011,02,27,03,16,2.00
2011,02,27,03,17,2.00
2011,02,27,03,18,2.00
2011,02,27,03,19,2.00
2011,02,27,03,20,2.00
2011,02,27,03,21,2.00
2011,02,27,03,22,2.10
2011,02,27,03,23,2.10
2011,02,27,03,24,2.10
2011,02,27,03,25,2.10
2011,02,27,03,26,2.10
2011,02,27,03,27,2.10
2011,02,27,03,28,2.10
2011,02,27,03,29,2.10
2011,02,27,03,30,2.10
2011,02,27,03,31,2.10
2011,02,27,03,32,2.10
2011,02,27,03,33,2.10
2011,02,27,03,34,2.10
2011,02,27,03,35,2.10
2011,02,27,03,36,2.10
2011,02,27,03,37,2.20
2011,02,27,03,38,2.20
2011,02,27,03,39,2.20
2011,02,27,03,40,2.20
2011,02,27,03,41,2.20
2011,02,27,03,42,2.20
2011,02,27,03,43,2.20
2011,02,27,03,44,2.20
2011,02,27,03,45,2.20
2011,02,27,03,46,2.20
2011,02,27,03,47,2.20
2011,02,27,03,48,2.20
2011,02,27,03,49,2.20
2011,02,27,03,50,2.20
2011,02,27,03,51,2.20
2011,02,27,03,52,2.20
2011,02,27,03,53,2.20
2011,02,27,03,54,2.20
2011,02,27,03,55,2.20
2011,02,27,03,56,2.30
2011,02,27,03,57,2.30
2011,02,27,03,58,2.30
2011,02,27,03,59,2.30
2011,02,27,04,00,2.20
2011,02,27,04,01,2.20
2011,02,27,04,02,2.20
2011,02,27,04,03,2.20
2011,02,27,04,04,2.20
2011,02,27,04,05,2.20
2011,02,27,04,06,2.10
2011,02,27,04,07,2.10
2011,02,27,04,08,2.10
2011,02,27,04,09,2.10
2011,02,27,04,10,2.10
2011,02,27,04,11,2.00
2011,02,27,04,12,2.00
2011,02,27,04,13,2.00
2011,02,27,04,14,2.00
2011,02,27,04,15,1.90
2011,02,27,04,16,1.90
2011,02,27,04,17,1.90
2011,02,27,04,18,1.90
2011,02,27,04,19,1.90
2011,02,27,04,20,1.90
2011,02,27,04,21,1.90
2011,02,27,04,22,1.90
2011,02,27,04,23,1.90
2011,02,27,04,24,1.90
2011,02,27,04,25,1.90
2011,02,27,04,26,1.90
2011,02,27,04,27,1.90
2011,02,27,04,28,1.90
2011,02,27,04,29,1.90
2011,02,27,04,30,1.90
2011,02,27,04,31,1.80
2011,02,27,04,32,1.80
2011,02,27,04,33,1.80
2011,02,27,04,34,1.80
2011,02,27,04,35,1.80
2011,02,27,04,36,1.80
2011,02,27,04,37,1.80
2011,02,27,04,38,1.80
2011,02,27,04,39,1.80
2011,02,27,04,40,1.80
2011,02,27,04,41,1.80
2011,02,27,04,42,1.80
2011,02,27,04,43,1.80
2011,02,27,04,44,1.80
2011,02,27,04,45,1.80
2011,02,27,04,46,1.80
2011,02,27,04,47,1.80
2011,02,27,04,48,1.80
2011,02,27,04,49,1.80
2011,02,27,04,50,1.90
2011,02,27,04,51,1.90
2011,02,27,04,52,1.90
2011,02,27,04,53,2.00
2011,02,27,04,54,2.00
2011,02,27,04,55,2.00
2011,02,27,04,56,2.00
2011,02,27,04,57,2.00
2011,02,27,04,58,2.10
2011,02,27,04,59,2.10
2011,02,27,05,00,2.10
2011,02,27,05,01,2.10
2011,02,27,05,02,2.10
2011,02,27,05,03,2.10
2011,02,27,05,04,2.10
2011,02,27,05,05,2.10
2011,02,27,05,06,2.10
2011,02,27,05,07,2.10
2011,02,27,05,08,2.10
2011,02,27,05,09,2.10
2011,02,27,05,10,2.10
2011,02,27,05,11,2.10
2011,02,27,05,12,2.10
2011,02,27,05,13,2.10
2011,02,27,05,14,2.20
2011,02,27,05,15,2.20
2011,02,27,05,16,2.20
2011,02,27,05,17,2.10
2011,02,27,05,18,2.10
2011,02,27,05,19,2.20
2011,02,27,05,20,2.20
2011,02,27,05,21,2.10
2011,02,27,05,22,2.10
2011,02,27,05,23,2.10
2011,02,27,05,24,2.10
2011,02,27,05,25,2.10
2011,02,27,05,26,2.10
2011,02,27,05,27,2.10
2011,02,27,05,28,2.20
2011,02,27,05,29,2.20
2011,02,27,05,30,2.20
2011,02,27,05,31,2.20
2011,02,27,05,32,2.20
2011,02,27,05,33,2.20
2011,02,27,05,34,2.20
2011,02,27,05,35,2.20
2011,02,27,05,36,2.20
2011,02,27,05,37,2.10
2011,02,27,05,38,2.10
2011,02,27,05,39,2.10
2011,02,27,05,40,2.20
2011,02,27,05,41,2.20
2011,02,27,05,42,2.10
2011,02,27,05,43,2.10
2011,02,27,05,44,2.20
2011,02,27,05,45,2.20
2011,02,27,05,46,2.20
2011,02,27,05,47,2.30
2011,02,27,05,48,2.30
2011,02,27,05,49,2.30
2011,02,27,05,50,2.30
2011,02,27,05,51,2.30
2011,02,27,05,52,2.30
2011,02,27,05,53,2.40
2011,02,27,05,54,2.40
2011,02,27,05,55,2.40
2011,02,27,05,56,2.40
2011,02,27,05,57,2.40
2011,02,27,05,58,2.40
2011,02,27,05,59,2.40
2011,02,27,06,00,2.50
2011,02,27,06,01,2.40
2011,02,27,06,02,2.50
2011,02,27,06,03,2.50
2011,02,27,06,04,2.50
2011,02,27,06,05,2.50
2011,02,27,06,06,2.50
2011,02,27,06,07,2.50
2011,02,27,06,08,2.50
2011,02,27,06,09,2.40
2011,02,27,06,10,2.40
2011,02,27,06,11,2.30
2011,02,27,06,12,2.30
2011,02,27,06,13,2.30
2011,02,27,06,14,2.30
2011,02,27,06,15,2.20
2011,02,27,06,16,2.10
2011,02,27,06,17,2.10
2011,02,27,06,18,2.10
2011,02,27,06,19,2.00
2011,02,27,06,20,2.00
2011,02,27,06,21,1.90
2011,02,27,06,22,1.90
2011,02,27,06,23,1.80
2011,02,27,06,24,1.80
2011,02,27,06,25,1.70
2011,02,27,06,26,1.70
2011,02,27,06,27,1.70
2011,02,27,06,28,1.70
2011,02,27,06,29,1.60
2011,02,27,06,30,1.60
2011,02,27,06,31,1.50
2011,02,27,06,32,1.50
2011,02,27,06,33,1.40
2011,02,27,06,34,1.40
2011,02,27,06,35,1.40
2011,02,27,06,36,1.40
2011,02,27,06,37,1.30
2011,02,27,06,38,1.30
2011,02,27,06,39,1.30
2011,02,27,06,40,1.30
2011,02,27,06,41,1.30
2011,02,27,06,42,1.30
2011,02,27,06,43,1.30
2011,02,27,06,44,1.30
2011,02,27,06,45,1.30
2011,02,27,06,46,1.30
2011,02,27,06,47,1.40
2011,02,27,06,48,1.40
2011,02,27,06,49,1.40
2011,02,27,06,50,1.40
2011,02,27,06,51,1.40
2011,02,27,06,52,1.40
2011,02,27,06,53,1.50
2011,02,27,06,54,1.50
2011,02,27,06,55,1.50
2011,02,27,06,56,1.60
2011,02,27,06,57,1.60
2011,02,27,06,58,1.60
2011,02,27,06,59,1.70
2011,02,27,07,00,1.70
2011,02,27,07,01,1.70
2011,02,27,07,02,1.70
2011,02,27,07,03,1.70
2011,02,27,07,04,1.70
2011,02,27,07,05,1.70
2011,02,27,07,06,1.80
2011,02,27,07,07,1.80
2011,02,27,07,08,1.80
2011,02,27,07,09,1.90
2011,02,27,07,10,1.90
2011,02,27,07,11,1.90
2011,02,27,07,12,1.90
2011,02,27,07,13,2.00
2011,02,27,07,14,2.00
2011,02,27,07,15,2.00
2011,02,27,07,16,2.00
2011,02,27,07,17,2.00
2011,02,27,07,18,2.00
2011,02,27,07,19,2.10
2011,02,27,07,20,2.20
2011,02,27,07,21,2.20
2011,02,27,07,22,2.30
2011,02,27,07,23,2.40
2011,02,27,07,24,2.40
2011,02,27,07,25,2.40
2011,02,27,07,26,2.40
2011,02,27,07,27,2.40
2011,02,27,07,28,2.50
2011,02,27,07,29,2.50
2011,02,27,07,30,2.50
2011,02,27,07,31,2.60
2011,02,27,07,32,2.60
2011,02,27,07,33,2.60
2011,02,27,07,34,2.60
2011,02,27,07,35,2.60
2011,02,27,07,36,2.50
2011,02,27,07,37,2.50
2011,02,27,07,38,2.50
2011,02,27,07,39,2.50
2011,02,27,07,40,2.50
2011,02,27,07,41,2.50
2011,02,27,07,42,2.50
2011,02,27,07,43,2.60
2011,02,27,07,44,2.60
2011,02,27,07,45,2.60
2011,02,27,07,46,2.60
2011,02,27,07,47,2.50
2011,02,27,07,48,2.50
2011,02,27,07,49,2.50
2011,02,27,07,50,2.50
2011,02,27,07,51,2.50
2011,02,27,07,52,2.60
2011,02,27,07,53,2.60
2011,02,27,07,54,2.60
2011,02,27,07,55,2.70
2011,02,27,07,56,2.70
2011,02,27,07,57,2.80
2011,02,27,07,58,2.80
2011,02,27,07,59,2.80
2011,02,27,08,00,2.80
2011,02,27,08,01,2.80
2011,02,27,08,02,2.90
2011,02,27,08,03,2.90
2011,02,27,08,04,3.00
2011,02,27,08,05,3.00
2011,02,27,08,06,3.10
2011,02,27,08,07,3.10
2011,02,27,08,08,3.20
2011,02,27,08,09,3.20
2011,02,27,08,10,3.30
2011,02,27,08,11,3.30
2011,02,27,08,12,3.30
2011,02,27,08,13,3.30
2011,02,27,08,14,3.30
2011,02,27,08,15,3.30
2011,02,27,08,16,3.30
2011,02,27,08,17,3.30
2011,02,27,08,18,3.30
2011,02,27,08,19,3.30
2011,02,27,08,20,3.30
2011,02,27,08,21,3.30
2011,02,27,08,22,3.30
2011,02,27,08,23,3.30
2011,02,27,08,24,3.30
2011,02,27,08,25,3.30
2011,02,27,08,26,3.20
2011,02,27,08,27,3.20
2011,02,27,08,28,3.20
2011,02,27,08,29,3.10
2011,02,27,08,30,3.10
2011,02,27,08,31,3.10
2011,02,27,08,32,3.10
2011,02,27,08,33,3.10
2011,02,27,08,34,3.10
2011,02,27,08,35,3.20
2011,02,27,08,36,3.20
2011,02,27,08,37,3.20
2011,02,27,08,38,3.20
2011,02,27,08,39,3.20
2011,02,27,08,40,3.20
2011,02,27,08,41,3.20
2011,02,27,08,42,3.20
2011,02,27,08,43,3.30
2011,02,27,08,44,3.30
2011,02,27,08,45,3.30
2011,02,27,08,46,3.30
2011,02,27,08,47,3.30
2011,02,27,08,48,3.30
2011,02,27,08,49,3.30
2011,02,27,08,50,3.30
2011,02,27,08,51,3.30
2011,02,27,08,52,3.30
2011,02,27,08,53,3.40
2011,02,27,08,54,3.40
2011,02,27,08,55,3.40
2011,02,27,08,56,3.40
2011,02,27,08,57,3.50
2011,02,27,08,58,3.50
2011,02,27,08,59,3.50
2011,02,27,09,00,3.60
2011,02,27,09,01,3.70
2011,02,27,09,02,3.70
2011,02,27,09,03,3.80
2011,02,27,09,04,3.80
2011,02,27,09,05,3.80
2011,02,27,09,06,3.80
2011,02,27,09,07,3.90
2011,02,27,09,08,3.90
2011,02,27,09,09,3.90
2011,02,27,09,10,4.00
2011,02,27,09,11,4.00
2011,02,27,09,12,4.00
2011,02,27,09,13,4.00
2011,02,27,09,14,4.10
2011,02,27,09,15,4.10
2011,02,27,09,16,4.10
2011,02,27,09,17,4.10
2011,02,27,09,18,4.10
2011,02,27,09,19,4.10
2011,02,27,09,20,4.10
2011,02,27,09,21,4.10
2011,02,27,09,22,4.10
2011,02,27,09,23,4.10
2011,02,27,09,24,4.10
2011,02,27,09,25,4.10
2011,02,27,09,26,4.10
2011,02,27,09,27,4.10
2011,02,27,09,28,4.10
2011,02,27,09,29,4.10
2011,02,27,09,30,4.10
2011,02,27,09,31,4.10
2011,02,27,09,32,4.10
2011,02,27,09,33,4.10
2011,02,27,09,34,4.10
2011,02,27,09,35,4.10
2011,02,27,09,36,4.10
2011,02,27,09,37,4.10
2011,02,27,09,38,4.10
2011,02,27,09,39,4.10
2011,02,27,09,40,4.10
2011,02,27,09,41,4.10
2011,02,27,09,42,4.20
2011,02,27,09,43,4.20
2011,02,27,09,44,4.20
2011,02,27,09,45,4.20
2011,02,27,09,46,4.30
2011,02,27,09,47,4.30
2011,02,27,09,48,4.30
2011,02,27,09,49,4.30
2011,02,27,09,50,4.30
2011,02,27,09,51,4.40
2011,02,27,09,52,4.40
2011,02,27,09,53,4.40
2011,02,27,09,54,4.40
2011,02,27,09,55,4.40
2011,02,27,09,56,4.40
2011,02,27,09,57,4.40
2011,02,27,09,58,4.40
2011,02,27,09,59,4.40
2011,02,27,10,00,4.40
2011,02,27,10,01,4.40
2011,02,27,10,02,4.40
2011,02,27,10,03,4.40
2011,02,27,10,04,4.40
2011,02,27,10,05,4.40
2011,02,27,10,06,4.40
2011,02,27,10,07,4.40
2011,02,27,10,08,4.40
2011,02,27,10,09,4.40
2011,02,27,10,10,4.40
2011,02,27,10,11,4.40
2011,02,27,10,12,4.40
2011,02,27,10,13,4.40
2011,02,27,10,14,4.40
2011,02,27,10,15,4.40
2011,02,27,10,16,4.40
2011,02,27,10,17,4.40
2011,02,27,10,18,4.40
2011,02,27,10,19,4.50
2011,02,27,10,20,4.50
2011,02,27,10,21,4.50
2011,02,27,10,22,4.60
2011,02,27,10,23,4.60
2011,02,27,10,24,4.60
2011,02,27,10,25,4.70
2011,02,27,10,26,4.70
2011,02,27,10,27,4.80
2011,02,27,10,28,4.80
2011,02,27,10,29,4.80
2011,02,27,10,30,4.90
2011,02,27,10,31,4.90
2011,02,27,10,32,4.90
2011,02,27,10,33,5.00
2011,02,27,10,34,5.10
2011,02,27,10,35,5.10
2011,02,27,10,36,5.10
2011,02,27,10,37,5.10
2011,02,27,10,38,5.20
2011,02,27,10,39,5.20
2011,02,27,10,40,5.20
2011,02,27,10,41,5.30
2011,02,27,10,42,5.30
2011,02,27,10,43,5.30
2011,02,27,10,44,5.30
2011,02,27,10,45,5.30
2011,02,27,10,46,5.30
2011,02,27,10,47,5.30
2011,02,27,10,48,5.30
2011,02,27,10,49,5.30
2011,02,27,10,50,5.30
2011,02,27,10,51,5.30
2011,02,27,10,52,5.30
2011,02,27,10,53,5.30
2011,02,27,10,54,5.30
2011,02,27,10,55,5.30
2011,02,27,10,56,5.30
2011,02,27,10,57,5.30
2011,02,27,10,58,5.30
2011,02,27,10,59,5.30
2011,02,27,11,00,5.30
2011,02,27,11,01,5.30
2011,02,27,11,02,5.30
2011,02,27,11,03,5.20
2011,02,27,11,04,5.20
2011,02,27,11,05,5.10
2011,02,27,11,06,5.10
2011,02,27,11,07,5.10
2011,02,27,11,08,5.00
2011,02,27,11,09,5.00
2011,02,27,11,10,5.00
2011,02,27,11,11,4.90
2011,02,27,11,12,4.90
2011,02,27,11,13,4.90
2011,02,27,11,14,4.80
2011,02,27,11,15,4.80
2011,02,27,11,16,4.80
2011,02,27,11,17,4.80
2011,02,27,11,18,4.80
2011,02,27,11,19,4.80
2011,02,27,11,20,4.80
2011,02,27,11,21,4.80
2011,02,27,11,22,4.80
2011,02,27,11,23,4.70
2011,02,27,11,24,4.70
2011,02,27,11,25,4.70
2011,02,27,11,26,4.70
2011,02,27,11,27,4.70
2011,02,27,11,28,4.60
2011,02,27,11,29,4.60
2011,02,27,11,30,4.60
2011,02,27,11,31,4.60
2011,02,27,11,32,4.60
2011,02,27,11,33,4.60
2011,02,27,11,34,4.60
2011,02,27,11,35,4.60
2011,02,27,11,36,4.60
2011,02,27,11,37,4.60
2011,02,27,11,38,4.60
2011,02,27,11,39,4.60
2011,02,27,11,40,4.60
2011,02,27,11,41,4.60
2011,02,27,11,42,4.60
2011,02,27,11,43,4.60
2011,02,27,11,44,4.60
2011,02,27,11,45,4.60
2011,02,27,11,46,4.60
2011,02,27,11,47,4.60
2011,02,27,11,48,4.60
2011,02,27,11,49,4.60
2011,02,27,11,50,4.60
2011,02,27,11,51,4.50
2011,02,27,11,52,4.50
2011,02,27,11,53,4.50
2011,02,27,11,54,4.50
2011,02,27,11,55,4.50
2011,02,27,11,56,4.40
2011,02,27,11,57,4.40
2011,02,27,11,58,4.40
2011,02,27,11,59,4.30
2011,02,27,12,00,4.30
2011,02,27,12,01,4.30
2011,02,27,12,02,4.30
2011,02,27,12,03,4.20
2011,02,27,12,04,4.20
2011,02,27,12,05,4.20
2011,02,27,12,06,4.20
2011,02,27,12,07,4.20
2011,02,27,12,08,4.10
2011,02,27,12,09,4.10
2011,02,27,12,10,4.10
2011,02,27,12,11,4.10
2011,02,27,12,12,4.10
2011,02,27,12,13,4.10
2011,02,27,12,14,4.10
2011,02,27,12,15,4.00
2011,02,27,12,16,4.00
2011,02,27,12,17,4.00
2011,02,27,12,18,4.10
2011,02,27,12,19,4.10
2011,02,27,12,20,4.10
2011,02,27,12,21,4.10
2011,02,27,12,22,4.10
2011,02,27,12,23,4.10
2011,02,27,12,24,4.10
2011,02,27,12,25,4.10
2011,02,27,12,26,4.10
2011,02,27,12,27,4.10
2011,02,27,12,28,4.10
2011,02,27,12,29,4.10
2011,02,27,12,30,4.10
2011,02,27,12,31,4.10
2011,02,27,12,32,4.10
2011,02,27,12,33,4.00
2011,02,27,12,34,4.00
2011,02,27,12,35,4.00
2011,02,27,12,36,4.00
2011,02,27,12,37,4.00
2011,02,27,12,38,3.90
2011,02,27,12,39,3.90
2011,02,27,12,40,3.80
2011,02,27,12,41,3.80
2011,02,27,12,42,3.80
2011,02,27,12,43,3.70
2011,02,27,12,44,3.70
2011,02,27,12,45,3.70
2011,02,27,12,46,3.70
2011,02,27,12,47,3.70
2011,02,27,12,48,3.70
2011,02,27,12,49,3.70
2011,02,27,12,50,3.70
2011,02,27,12,51,3.70
2011,02,27,12,52,3.70
2011,02,27,12,53,3.70
2011,02,27,12,54,3.70
2011,02,27,12,55,3.70
2011,02,27,12,56,3.60
2011,02,27,12,57,3.60
2011,02,27,12,58,3.60
2011,02,27,12,59,3.60
2011,02,27,13,00,3.60
2011,02,27,13,01,3.60
2011,02,27,13,02,3.60
2011,02,27,13,03,3.60
2011,02,27,13,04,3.60
2011,02,27,13,05,3.60
2011,02,27,13,06,3.60
2011,02,27,13,07,3.60
2011,02,27,13,08,3.60
2011,02,27,13,09,3.60
2011,02,27,13,10,3.60
2011,02,27,13,11,3.60
2011,02,27,13,12,3.60
2011,02,27,13,13,3.60
2011,02,27,13,14,3.60
2011,02,27,13,15,3.60
2011,02,27,13,16,3.60
2011,02,27,13,17,3.70
2011,02,27,13,18,3.70
2011,02,27,13,19,3.70
2011,02,27,13,20,3.70
2011,02,27,13,21,3.70
2011,02,27,13,22,3.70
2011,02,27,13,23,3.70
2011,02,27,13,24,3.70
2011,02,27,13,25,3.60
2011,02,27,13,26,3.60
2011,02,27,13,27,3.60
2011,02,27,13,28,3.60
2011,02,27,13,29,3.60
2011,02,27,13,30,3.70
2011,02,27,13,31,3.70
2011,02,27,13,32,3.70
2011,02,27,13,33,3.70
2011,02,27,13,34,3.70
2011,02,27,13,35,3.70
2011,02,27,13,36,3.70
2011,02,27,13,37,3.70
2011,02,27,13,38,3.70
2011,02,27,13,39,3.70
2011,02,27,13,40,3.70
2011,02,27,13,41,3.70
2011,02,27,13,42,3.70
2011,02,27,13,43,3.70
2011,02,27,13,44,3.70
2011,02,27,13,45,3.60
2011,02,27,13,46,3.60
2011,02,27,13,47,3.60
2011,02,27,13,48,3.60
2011,02,27,13,49,3.50
2011,02,27,13,50,3.50
2011,02,27,13,51,3.50
2011,02,27,13,52,3.50
2011,02,27,13,53,3.40
2011,02,27,13,54,3.40
2011,02,27,13,55,3.40
2011,02,27,13,56,3.40
2011,02,27,13,57,3.40
2011,02,27,13,58,3.40
2011,02,27,13,59,3.40
2011,02,27,14,00,3.40
2011,02,27,14,01,3.40
2011,02,27,14,02,3.40
2011,02,27,14,03,3.40
2011,02,27,14,04,3.40
2011,02,27,14,05,3.40
2011,02,27,14,06,3.40
2011,02,27,14,07,3.40
2011,02,27,14,08,3.40
2011,02,27,14,09,3.40
2011,02,27,14,10,3.40
2011,02,27,14,11,3.40
2011,02,27,14,12,3.40
2011,02,27,14,13,3.40
2011,02,27,14,14,3.40
2011,02,27,14,15,3.40
2011,02,27,14,16,3.40
2011,02,27,14,17,3.40
2011,02,27,14,18,3.40
2011,02,27,14,19,3.50
2011,02,27,14,20,3.50
2011,02,27,14,21,3.40
2011,02,27,14,22,3.40
2011,02,27,14,23,3.40
2011,02,27,14,24,3.40
2011,02,27,14,25,3.40
2011,02,27,14,26,3.40
2011,02,27,14,27,3.40
2011,02,27,14,28,3.40
2011,02,27,14,29,3.40
2011,02,27,14,30,3.40
2011,02,27,14,31,3.40
2011,02,27,14,32,3.40
2011,02,27,14,33,3.40
2011,02,27,14,34,3.40
2011,02,27,14,35,3.30
2011,02,27,14,36,3.40
2011,02,27,14,37,3.40
2011,02,27,14,38,3.40
2011,02,27,14,39,3.40
2011,02,27,14,40,3.40
2011,02,27,14,41,3.40
2011,02,27,14,42,3.50
2011,02,27,14,43,3.50
2011,02,27,14,44,3.50
2011,02,27,14,45,3.50
2011,02,27,14,46,3.50
2011,02,27,14,47,3.50
2011,02,27,14,48,3.60
2011,02,27,14,49,3.60
2011,02,27,14,50,3.60
2011,02,27,14,51,3.60
2011,02,27,14,52,3.60
2011,02,27,14,53,3.60
2011,02,27,14,54,3.60
2011,02,27,14,55,3.60
2011,02,27,14,56,3.60
2011,02,27,14,57,3.60
2011,02,27,14,58,3.60
2011,02,27,14,59,3.70
2011,02,27,15,00,3.70
2011,02,27,15,01,3.70
2011,02,27,15,02,3.70
2011,02,27,15,03,3.70
2011,02,27,15,04,3.70
2011,02,27,15,05,3.70
2011,02,27,15,06,3.60
2011,02,27,15,07,3.60
2011,02,27,15,08,3.60
2011,02,27,15,09,3.60
2011,02,27,15,10,3.60
2011,02,27,15,11,3.70
2011,02,27,15,12,3.70
2011,02,27,15,13,3.70
2011,02,27,15,14,3.70
2011,02,27,15,15,3.70
2011,02,27,15,16,3.70
2011,02,27,15,17,3.80
2011,02,27,15,18,3.80
2011,02,27,15,19,3.80
2011,02,27,15,20,3.80
2011,02,27,15,21,3.90
2011,02,27,15,22,3.90
2011,02,27,15,23,3.90
2011,02,27,15,24,3.90
2011,02,27,15,25,3.90
2011,02,27,15,26,3.90
2011,02,27,15,27,3.90
2011,02,27,15,28,3.90
2011,02,27,15,29,3.90
2011,02,27,15,30,3.90
2011,02,27,15,31,3.90
2011,02,27,15,32,3.90
2011,02,27,15,33,3.90
2011,02,27,15,34,3.90
2011,02,27,15,35,3.90
2011,02,27,15,36,3.90
2011,02,27,15,37,3.90
2011,02,27,15,38,3.90
2011,02,27,15,39,3.90
2011,02,27,15,40,3.90
2011,02,27,15,41,3.90
2011,02,27,15,42,3.90
2011,02,27,15,43,3.80
2011,02,27,15,44,3.80
2011,02,27,15,45,3.80
2011,02,27,15,46,3.80
2011,02,27,15,47,3.80
2011,02,27,15,48,3.80
2011,02,27,15,49,3.80
2011,02,27,15,50,3.80
2011,02,27,15,51,3.80
2011,02,27,15,52,3.80
2011,02,27,15,53,3.80
2011,02,27,15,54,3.90
2011,02,27,15,55,3.90
2011,02,27,15,56,3.90
2011,02,27,15,57,4.00
2011,02,27,15,58,4.00
2011,02,27,15,59,4.00
2011,02,27,16,00,4.00
2011,02,27,16,01,4.10
2011,02,27,16,02,4.10
2011,02,27,16,03,4.10
2011,02,27,16,04,4.10
2011,02,27,16,05,4.10
2011,02,27,16,06,4.10
2011,02,27,16,07,4.10
2011,02,27,16,08,4.10
2011,02,27,16,09,4.10
2011,02,27,16,10,4.10
2011,02,27,16,11,4.10
2011,02,27,16,12,4.10
2011,02,27,16,13,4.10
2011,02,27,16,14,4.10
2011,02,27,16,15,4.10
2011,02,27,16,16,4.00
2011,02,27,16,17,4.00
2011,02,27,16,18,4.00
2011,02,27,16,19,4.00
2011,02,27,16,20,4.00
2011,02,27,16,21,4.00
2011,02,27,16,22,4.00
2011,02,27,16,23,4.00
2011,02,27,16,24,4.00
2011,02,27,16,25,4.00
2011,02,27,16,26,4.00
2011,02,27,16,27,4.00
2011,02,27,16,28,4.00
2011,02,27,16,29,4.00
2011,02,27,16,30,4.00
2011,02,27,16,31,3.90
2011,02,27,16,32,3.90
2011,02,27,16,33,3.90
2011,02,27,16,34,3.90
2011,02,27,16,35,3.90
2011,02,27,16,36,3.90
2011,02,27,16,37,3.90
2011,02,27,16,38,3.90
2011,02,27,16,39,4.00
2011,02,27,16,40,4.00
2011,02,27,16,41,4.10
2011,02,27,16,42,4.10
2011,02,27,16,43,4.10
2011,02,27,16,44,4.20
2011,02,27,16,45,4.20
2011,02,27,16,46,4.20
2011,02,27,16,47,4.20
2011,02,27,16,48,4.20
2011,02,27,16,49,4.20
2011,02,27,16,50,4.20
2011,02,27,16,51,4.20
2011,02,27,16,52,4.20
2011,02,27,16,53,4.20
2011,02,27,16,54,4.20
2011,02,27,16,55,4.20
2011,02,27,16,56,4.20
2011,02,27,16,57,4.20
2011,02,27,16,58,4.10
2011,02,27,16,59,4.10
2011,02,27,17,00,4.10
2011,02,27,17,01,4.10
2011,02,27,17,02,4.10
2011,02,27,17,03,4.00
2011,02,27,17,04,4.00
2011,02,27,17,05,3.90
2011,02,27,17,06,3.90
2011,02,27,17,07,4.00
2011,02,27,17,08,3.90
2011,02,27,17,09,3.90
2011,02,27,17,10,3.90
2011,02,27,17,11,3.90
2011,02,27,17,12,3.90
2011,02,27,17,13,4.00
2011,02,27,17,14,4.00
2011,02,27,17,15,4.10
2011,02,27,17,16,4.10
2011,02,27,17,17,4.10
2011,02,27,17,18,4.10
2011,02,27,17,19,4.10
2011,02,27,17,20,4.10
2011,02,27,17,21,4.00
2011,02,27,17,22,4.00
2011,02,27,17,23,4.00
2011,02,27,17,24,4.00
2011,02,27,17,25,4.00
2011,02,27,17,26,4.00
2011,02,27,17,27,4.00
2011,02,27,17,28,4.00
2011,02,27,17,29,4.10
2011,02,27,17,30,4.10
2011,02,27,17,31,4.10
2011,02,27,17,32,4.10
2011,02,27,17,33,4.10
2011,02,27,17,34,4.10
2011,02,27,17,35,4.10
2011,02,27,17,36,4.10
2011,02,27,17,37,4.10
2011,02,27,17,38,4.10
2011,02,27,17,39,4.00
2011,02,27,17,40,4.00
2011,02,27,17,41,4.00
2011,02,27,17,42,3.90
2011,02,27,17,43,3.90
2011,02,27,17,44,3.90
2011,02,27,17,45,3.90
2011,02,27,17,46,3.80
2011,02,27,17,47,3.80
2011,02,27,17,48,3.80
2011,02,27,17,49,3.80
2011,02,27,17,50,3.80
2011,02,27,17,51,3.80
2011,02,27,17,52,3.80
2011,02,27,17,53,3.80
2011,02,27,17,54,3.70
2011,02,27,17,55,3.70
2011,02,27,17,56,3.70
2011,02,27,17,57,3.70
2011,02,27,17,58,3.70
2011,02,27,17,59,3.70
2011,02,27,18,00,3.70
2011,02,27,18,01,3.70
2011,02,27,18,02,3.70
2011,02,27,18,03,3.70
2011,02,27,18,04,3.70
2011,02,27,18,05,3.70
2011,02,27,18,06,3.70